Weather History for K1YT - October, 2013

Change the Weather History Date:

Wednesday, October 9, 2013

  Actual Average (KYKM) Record (KYKM)
Temperature  
Mean Temperature 49 °F 52 °F  
Max Temperature 60 °F 68 °F 84 °F (1952)
Min Temperature 39 °F 36 °F 20 °F (1985)
Degree Days  
Heating Degree Days 16 13  
Month to date heating degree days 104  
Since 1 July heating degree days 312  
Cooling Degree Days 0 0  
Month to date cooling degree days 0  
Year to date cooling degree days 472  
Moisture  
Dew Point 33 °F    
Average Humidity 56    
Maximum Humidity 79    
Minimum Humidity 33    
Precipitation  
Precipitation 0.00 in 0.01 in 0.38 in (1955)
Month to date precipitation 0.11  
Year to date precipitation 5.24  
Snow  
Snow - 0.00 in 0.00 in (2002)
Month to date snowfall 0.0  
Year to date snowfall 8.6  
Since 1 July snowfall 0.0  
Snow Depth -    
Sea Level Pressure  
Sea Level Pressure 30.01 in    
Wind  
Wind Speed 6 mph ()    
Max Wind Speed 13 mph    
Max Gust Speed -    
Visibility 12.0 miles    
Events      
T = Trace of Precipitation, MM = Missing Value Source: Averaged Metar Reports

Daily Weather History Graph

Daily Weather History Graph

Search for Another Location

Airport or City:

Trip Planner

Search our weather history database for the weather conditions in past years. The results will help you decide how hot, cold, wet, or windy it might be!

Date:

Astronomy

Oct. 09, 2013 Rise Set
Actual Time 7:11 AM PDT 6:25 PM PDT
Civil Twilight 6:41 AM PDT 6:55 PM PDT
Nautical Twilight 6:06 AM PDT 7:30 PM PDT
Astronomical Twilight 5:31 AM PDT 8:05 PM PDT
Moon 12:26 PM PDT (10/9) 9:50 PM PDT (10/9)
Length of Visible Light 12h 14m
Length of Day
11h 13m
Waxing Crescent, 26% of the Moon is Illuminated
Oct 9
Waxing Crescent
Oct 11
First Quarter
Oct 18
Full
Oct 26
Last Quarter
Nov 3
New

Hourly Weather History & Observations

Time (PDT) Temp. Windchill Dew Point Humidity Pressure Visibility Wind Dir Wind Speed Gust Speed Precip Events Conditions
12:56 AM 41.2 °F 38.2 °F 32.9 °F 72% 30.03 in 12.0 mi East 4.6 mph - N/A   Clear
1:56 AM 45.1 °F 39.1 °F 33.8 °F 65% 30.04 in 12.0 mi NE 12.7 mph - N/A   Mostly Cloudy
2:56 AM 42.4 °F - 34.2 °F 72% 30.06 in 12.0 mi Variable 2.3 mph - N/A   Mostly Cloudy
3:56 AM 42.1 °F 36.6 °F 33.4 °F 71% 30.07 in 12.0 mi East 9.2 mph - N/A   Partly Cloudy
4:56 AM 39.2 °F 34.2 °F 33.3 °F 79% 30.08 in 12.0 mi ENE 6.9 mph - N/A   Clear
5:56 AM 42.4 °F 36.5 °F 34.3 °F 73% 30.09 in 12.0 mi ESE 10.4 mph - N/A   Mostly Cloudy
6:56 AM 44.8 °F 40.4 °F 33.6 °F 65% 30.10 in 12.0 mi ESE 8.1 mph - N/A   Mostly Cloudy
7:56 AM 44.1 °F 40.1 °F 32.9 °F 65% 30.10 in 12.0 mi ENE 6.9 mph - N/A   Clear
8:56 AM 46.9 °F - 33.1 °F 59% 30.10 in 12.0 mi ENE 6.9 mph - N/A   Clear
2:56 PM 59.9 °F - 30.6 °F 33% 29.99 in 12.0 mi West 8.1 mph - N/A   Clear
3:56 PM 58.8 °F - 30.0 °F 34% 29.98 in 12.0 mi West 2.3 mph - N/A   Scattered Clouds
4:56 PM 58.6 °F - 30.2 °F 34% 29.96 in 12.0 mi SSW 6.9 mph - N/A   Scattered Clouds
5:56 PM 57.0 °F - 31.6 °F 38% 29.95 in 12.0 mi SSW 5.8 mph - N/A   Scattered Clouds
6:56 PM 55.2 °F - 31.5 °F 40% 29.94 in 12.0 mi South 6.9 mph - N/A   Overcast
7:56 PM 55.0 °F - 32.5 °F 43% 29.93 in 12.0 mi South 8.1 mph - N/A   Overcast
8:56 PM 53.6 °F - 33.1 °F 46% 29.93 in 12.0 mi East 1.2 mph - N/A   Mostly Cloudy
9:56 PM 52.9 °F - 34.9 °F 50% 29.92 in 12.0 mi NNW 2.3 mph - N/A   Mostly Cloudy
10:56 PM 48.2 °F - 34.9 °F 60% 29.92 in 12.0 mi ESE 2.3 mph - N/A   Mostly Cloudy
11:56 PM 48.6 °F - 35.2 °F 60% 29.92 in 12.0 mi SE 3.5 mph - N/A   Mostly Cloudy